EW2706 Weather Reports


time (UTC)temp
F
wind
direction
speed
knots
gust
knots
rain 1hr
in
rain 24hr
in
rain mn
in
humidity
%
barometer
mb
20260504081503 55 200 4.3 12.2 0.00 0.00 0.00 47 997.0
20260504080502 55 220 4.3 9.6 0.00 0.00 0.00 47 997.3
20260504050211 52 250 0.0 2.6 0.00 0.00 0.00 53 1000.4
20260504045210 51 250 0.9 2.6 0.00 0.00 0.00 58 1000.4
20260504044209 50 250 0.0 1.7 0.00 0.00 0.00 63 1000.7
20260504043208 49 250 0.0 1.7 0.00 0.00 0.00 69 1000.7
20260504042208 49 250 0.9 1.7 0.00 0.00 0.00 73 1001.0
20260504041207 49 250 0.9 1.7 0.00 0.00 0.00 71 1001.0
20260504040206 49 251 0.0 0.0 0.00 0.00 0.00 67 1001.3
20260504035205 50 251 0.0 0.0 0.00 0.00 0.00 66 1001.3
20260504034133 50 251 0.0 0.0 0.00 0.00 0.00 67 1001.7
20260504033132 51 251 0.0 0.0 0.00 0.00 0.00 67 1001.7
20260504032131 51 251 0.0 0.0 0.00 0.00 0.00 66 1002.0
20260504031130 51 251 0.0 0.0 0.00 0.00 0.00 64 1002.0
20260504030129 52 251 0.0 0.0 0.00 0.00 0.00 60 1002.3
20260504025057 53 251 0.0 0.0 0.00 0.00 0.00 53 1002.0
20260504024056 53 251 0.0 0.0 0.00 0.00 0.00 51 1002.3
20260504023055 54 251 0.0 0.0 0.00 0.00 0.00 47 1002.3
20260504022054 55 251 0.0 0.0 0.00 0.00 0.00 45 1002.4
20260504021053 57 251 0.0 0.0 0.00 0.00 0.00 44 1002.4
20260504020052 58 251 0.0 0.0 0.00 0.00 0.00 42 1002.4
20260504015052 60 251 0.0 0.0 0.00 0.00 0.00 40 1002.5
20260504014050 62 251 0.0 0.0 0.00 0.00 0.00 39 1002.5
20260504013019 64 251 0.0 1.7 0.00 0.00 0.00 36 1002.9
20260504012018 65 251 0.9 2.6 0.00 0.00 0.00 33 1002.9
20260504011017 65 250 0.9 5.2 0.00 0.00 0.00 33 1002.9
20260504005945 66 278 1.7 5.2 0.00 0.00 0.00 32 1002.9
20260504004944 66 253 2.6 5.2 0.00 0.00 0.00 31 1002.8
20260504003841 67 276 2.6 9.6 0.00 0.00 0.00 30 1003.2
20260504002840 68 281 2.6 7.0 0.00 0.00 0.00 28 1003.2
20260504001839 68 291 3.5 9.6 0.00 0.00 0.00 28 1003.2
20260504000839 69 273 3.5 12.2 0.00 0.00 0.00 27 1003.1
20260503235838 69 272 2.6 14.8 0.00 0.00 0.00 29 1003.1
20260503234703 69 282 6.1 12.2 0.00 0.00 0.00 27 1003.1
20260503233703 70 267 2.6 9.6 0.00 0.00 0.00 26 1003.2
20260503232702 71 252 7.0 12.2 0.00 0.00 0.00 26 1003.2
20260503231701 71 300 3.5 12.2 0.00 0.00 0.00 25 1003.5
20260503230700 71 291 5.2 12.2 0.00 0.00 0.00 25 1003.5
20260503225659 71 322 6.1 10.4 0.00 0.00 0.00 25 1003.5
20260503224658 71 281 2.6 12.2 0.00 0.00 0.00 27 1003.5
20260503223555 71 269 6.1 13.9 0.00 0.00 0.00 28 1003.8
20260503222523 71 251 4.3 17.4 0.00 0.00 0.00 25 1003.9
20260503221451 71 303 3.5 10.4 0.00 0.00 0.00 26 1003.9
20260503220450 71 268 7.0 13.9 0.00 0.00 0.00 25 1003.9
20260503215449 70 273 4.3 16.5 0.00 0.00 0.00 27 1003.9
20260503214448 70 351 5.2 12.2 0.00 0.00 0.00 26 1003.9
20260503213416 70 294 6.1 17.4 0.00 0.00 0.00 27 1004.3
20260503212415 70 309 4.3 16.5 0.00 0.00 0.00 27 1004.3
20260503211414 70 292 3.5 19.1 0.00 0.00 0.00 28 1004.3
20260503210413 70 281 4.3 10.4 0.00 0.00 0.00 29 1004.4
20260503205412 70 307 3.5 14.8 0.00 0.00 0.00 30 1004.7
20260503204411 70 9 4.3 14.8 0.00 0.00 0.00 30 1004.7
20260503203410 70 279 7.0 17.4 0.00 0.00 0.00 29 1004.7
20260503202410 70 313 4.3 14.8 0.00 0.00 0.00 32 1004.8
20260503201409 70 34 4.3 13.9 0.00 0.00 0.00 33 1005.1
20260503200408 69 320 7.0 17.4 0.00 0.00 0.00 31 1005.1
20260503195407 69 296 3.5 10.4 0.00 0.00 0.00 32 1005.1
20260503194406 69 356 6.1 20.0 0.00 0.00 0.00 33 1005.4
20260503193406 68 231 3.5 14.8 0.00 0.00 0.00 32 1005.4
20260503192305 69 299 3.5 17.4 0.00 0.00 0.00 33 1005.5
20260503191302 69 301 4.3 13.9 0.00 0.00 0.00 32 1005.8
20260503190301 68 359 7.8 19.1 0.00 0.00 0.00 31 1005.8
20260503185300 68 263 5.2 19.1 0.00 0.00 0.00 33 1005.8
20260503184300 68 307 6.1 17.4 0.00 0.00 0.00 32 1005.8
20260503183259 68 356 4.3 14.8 0.00 0.00 0.00 33 1005.8
20260503182258 68 283 10.4 19.1 0.00 0.00 0.00 32 1005.8
20260503181257 68 350 8.7 20.0 0.00 0.00 0.00 33 1005.8
20260503180256 67 343 7.8 16.5 0.00 0.00 0.00 34 1005.8
20260503175225 67 323 5.2 17.4 0.00 0.00 0.00 38 1006.2
20260503174224 67 0 4.3 16.5 0.00 0.00 0.00 39 1006.1
20260503173223 67 7 7.8 17.4 0.00 0.00 0.00 37 1006.1
20260503172222 67 355 5.2 14.8 0.00 0.00 0.00 40 1006.1
20260503171149 67 312 6.1 13.9 0.00 0.00 0.00 39 1006.1
20260503170147 67 331 7.0 13.9 0.00 0.00 0.00 39 1006.1
20260503160111 65 349 6.1 16.5 0.00 0.00 0.00 45 1006.0
20260503130851 55 25 3.5 9.6 0.00 0.00 0.00 57 1004.8